Flag for Germany Weather past 2 weeks in Vaihingen an der Enz, Baden-Württemberg, Germany

Now
68 °F

Passing clouds.


Feels Like: 68 °F
Forecast: 58 / 87 °F
Wind: 3 mph from North

Location: Stuttgart-Echterdingen

Current Time: Jul 1, 2015 at 12:16:14 AM

Latest Report: Jun 30, 2015 at 11:50 PM


Visibility: N/A

Pressure: 30.12 "Hg

Humidity: 64%

Dew point: 55 °F

Location of Vaihingen an der EnzLocation

Historic Weather in Vaihingen an der Enz — Graph

°F

Vaihingen an der Enz temperature yesterday

Maximum temperature yesterday: 84 °F (at 4:20 PM)
Minimum temperature yesterday: 57 °F (at 6:20 AM)
Average temperature yesterday: 72 °F

Past Weeks' High & Low Weather Summary

 TemperatureHumidityPressure
High84 °F (Jun 30, 4:20 PM)100% (Jun 18, 3:50 PM)30.24 "Hg (Jun 18, 3:50 PM)
Low46 °F (Jun 24, 4:50 AM)31% (Jun 30, 4:50 PM)29.74 "Hg (Jun 22, 8:50 PM)
Average61 °F72%30.11 "Hg
* Reported Jun 15 11:20 PM — Jun 30 11:20 PM, Vaihingen an der Enz, Weather by CustomWeather, © 2015

Note: Actual official high and low records may vary slightly from our data, if they occured in-between our weather recording intervals... More about our weather records

Advertising

Vaihingen an der Enz weather history for previous 24 hours

 ConditionsComfort  
Time TempWeatherWind HumidityBarometerVisibility
11:20 PM
Tue, Jun 30
72 °FClear.2 mph53%30.12 "Hg10 mi
10:50 PM72 °FClear.1 mph57%30.12 "Hg10 mi
10:20 PM73 °FSunny.2 mph50%30.12 "Hg10 mi
9:50 PM75 °FSunny.5 mph47%30.12 "Hg10 mi
9:20 PM77 °FSunny.5 mph44%30.12 "Hg10 mi
8:50 PM79 °FSunny.7 mph45%30.09 "Hg10 mi
8:20 PM81 °FSunny.7 mph39%30.09 "Hg10 mi
7:50 PM82 °FSunny.6 mph32%30.09 "Hg10 mi
6:50 PM84 °FPassing clouds.5 mph31%30.09 "HgN/A
6:20 PM84 °FPassing clouds.3 mph33%30.09 "HgN/A
5:50 PM84 °FPassing clouds.6 mph31%30.12 "HgN/A
4:50 PM84 °FPassing clouds.3 mph31%30.12 "HgN/A
4:20 PM84 °FPassing clouds.5 mph33%30.12 "HgN/A
3:50 PM82 °FSunny.5 mph35%30.12 "Hg10 mi
2:50 PM82 °FSunny.2 mph35%30.15 "Hg10 mi
2:20 PM82 °FSunny.3 mph37%30.15 "Hg10 mi
1:50 PM82 °FSunny.5 mph42%30.15 "Hg10 mi
1:20 PM81 °FSunny.2 mph45%30.15 "Hg10 mi
12:50 PM81 °FPassing clouds.6 mph48%30.15 "HgN/A
12:20 PM79 °FPassing clouds.5 mph51%30.18 "HgN/A
11:50 AM79 °FPassing clouds.6 mph51%30.18 "HgN/A
11:20 AM77 °FPassing clouds.3 mph57%30.18 "HgN/A
10:50 AM77 °FPassing clouds.2 mph61%30.18 "HgN/A
10:20 AM75 °FPassing clouds.2 mph65%30.18 "HgN/A
9:50 AM73 °FSunny.1 mph65%30.18 "Hg10 mi
9:20 AM72 °FSunny.2 mph65%30.18 "Hg10 mi
8:50 AM68 °FSunny.2 mph73%30.18 "Hg10 mi
8:20 AM66 °FSunny.2 mph83%30.18 "Hg10 mi
7:50 AM63 °FSunny.2 mph88%30.18 "Hg10 mi
7:20 AM63 °FSunny.1 mph88%30.15 "Hg10 mi
6:50 AM59 °FSunny.No wind94%30.15 "Hg10 mi
6:20 AM57 °FClear.1 mph94%30.15 "Hg10 mi
5:50 AM59 °FClear.No wind88%30.15 "Hg10 mi
5:20 AM59 °FClear.1 mph88%30.15 "Hg10 mi
4:50 AM59 °FClear.No wind88%30.15 "Hg10 mi
4:20 AM61 °FClear.2 mph88%30.15 "Hg10 mi
3:50 AM61 °FClear.1 mph88%30.15 "Hg10 mi
3:20 AM61 °FClear.2 mph83%30.15 "Hg10 mi
2:50 AM63 °FClear.No wind83%30.15 "Hg10 mi
2:20 AM63 °FClear.1 mph83%30.15 "Hg10 mi
1:50 AM63 °FPassing clouds.6 mph83%30.18 "HgN/A
1:20 AM64 °FClear.1 mph78%30.18 "Hg10 mi
12:50 AM66 °FClear.3 mph73%30.18 "Hg10 mi
12:20 AM66 °FClear.2 mph73%30.18 "Hg10 mi
Weather by CustomWeather, © 2015

See weather overviewHow to use our weather pages